Year,Month,Day,Hour,Minute,Value (Times are PST for barometer in hPa)
2016,10,14,00,00,983.92
2016,10,14,00,01,983.81
2016,10,14,00,02,983.75
2016,10,14,00,03,983.68
2016,10,14,00,04,983.64
2016,10,14,00,05,983.71
2016,10,14,00,06,983.75
2016,10,14,00,07,983.70
2016,10,14,00,08,983.51
2016,10,14,00,09,983.43
2016,10,14,00,10,983.24
2016,10,14,00,11,983.14
2016,10,14,00,12,983.10
2016,10,14,00,13,983.17
2016,10,14,00,14,983.19
2016,10,14,00,15,982.96
2016,10,14,00,16,982.83
2016,10,14,00,17,982.80
2016,10,14,00,18,982.76
2016,10,14,00,19,982.76
2016,10,14,00,20,982.76
2016,10,14,00,21,982.73
2016,10,14,00,22,982.76
2016,10,14,00,23,982.76
2016,10,14,00,24,982.83
2016,10,14,00,25,982.80
2016,10,14,00,26,982.87
2016,10,14,00,27,982.76
2016,10,14,00,28,982.73
2016,10,14,00,29,982.66
2016,10,14,00,30,982.66
2016,10,14,00,31,982.73
2016,10,14,00,32,982.80
2016,10,14,00,33,982.73
2016,10,14,00,34,982.73
2016,10,14,00,35,982.76
2016,10,14,00,36,982.73
2016,10,14,00,37,982.80
2016,10,14,00,38,982.80
2016,10,14,00,39,982.80
2016,10,14,00,40,982.87
2016,10,14,00,41,982.87
2016,10,14,00,42,982.87
2016,10,14,00,43,982.87
2016,10,14,00,44,982.93
2016,10,14,00,45,982.97
2016,10,14,00,46,983.00
2016,10,14,00,47,983.00
2016,10,14,00,48,983.04
2016,10,14,00,49,983.04
2016,10,14,00,50,983.07
2016,10,14,00,51,983.04
2016,10,14,00,52,983.00
2016,10,14,00,53,982.97
2016,10,14,00,54,983.07
2016,10,14,00,55,983.07
2016,10,14,00,56,982.97
2016,10,14,00,57,982.83
2016,10,14,00,58,982.91
2016,10,14,00,59,983.00
2016,10,14,01,00,982.93
2016,10,14,01,01,982.97
2016,10,14,01,02,982.93
2016,10,14,01,03,982.97
2016,10,14,01,04,982.97
2016,10,14,01,05,983.00
2016,10,14,01,06,983.10
2016,10,14,01,07,983.10
2016,10,14,01,08,983.14
2016,10,14,01,09,983.17
2016,10,14,01,10,983.20
2016,10,14,01,11,983.23
2016,10,14,01,12,983.15
2016,10,14,01,13,983.24
2016,10,14,01,14,983.18
2016,10,14,01,15,983.31
2016,10,14,01,16,983.34
2016,10,14,01,17,983.41
2016,10,14,01,18,983.41
2016,10,14,01,19,983.44
2016,10,14,01,20,983.51
2016,10,14,01,21,983.48
2016,10,14,01,22,983.51
2016,10,14,01,23,983.64
2016,10,14,01,24,983.68
2016,10,14,01,25,983.61
2016,10,14,01,26,983.65
2016,10,14,01,27,983.85
2016,10,14,01,28,983.92
2016,10,14,01,29,983.85
2016,10,14,01,30,983.85
2016,10,14,01,31,983.85
2016,10,14,01,32,983.92
2016,10,14,01,33,984.03
2016,10,14,01,34,984.12
2016,10,14,01,35,984.20
2016,10,14,01,36,984.29
2016,10,14,01,37,984.32
2016,10,14,01,38,984.25
2016,10,14,01,39,984.32
2016,10,14,01,40,984.36
2016,10,14,01,41,984.32
2016,10,14,01,42,984.32
2016,10,14,01,43,984.32
2016,10,14,01,44,984.39
2016,10,14,01,45,984.42
2016,10,14,01,46,984.42
2016,10,14,01,47,984.46
2016,10,14,01,48,984.46
2016,10,14,01,49,984.36
2016,10,14,01,50,984.29
2016,10,14,01,51,984.39
2016,10,14,01,52,984.49
2016,10,14,01,53,984.53
2016,10,14,01,54,984.56
2016,10,14,01,55,984.66
2016,10,14,01,56,984.73
2016,10,14,01,57,984.80
2016,10,14,01,58,984.80
2016,10,14,01,59,984.83
2016,10,14,02,00,984.83
2016,10,14,02,01,984.80
2016,10,14,02,02,984.77
2016,10,14,02,03,984.86
2016,10,14,02,04,984.90
2016,10,14,02,05,984.80
2016,10,14,02,06,984.86
2016,10,14,02,07,984.86
2016,10,14,02,08,984.90
2016,10,14,02,09,984.80
2016,10,14,02,10,984.83
2016,10,14,02,11,984.90
2016,10,14,02,12,984.97
2016,10,14,02,13,985.01
2016,10,14,02,14,985.13
2016,10,14,02,15,985.13
2016,10,14,02,16,985.17
2016,10,14,02,17,985.13
2016,10,14,02,18,985.07
2016,10,14,02,19,985.13
2016,10,14,02,20,985.18
2016,10,14,02,21,985.34
2016,10,14,02,22,985.44
2016,10,14,02,23,985.47
2016,10,14,02,24,985.47
2016,10,14,02,25,985.41
2016,10,14,02,26,985.41
2016,10,14,02,27,985.41
2016,10,14,02,28,985.51
2016,10,14,02,29,985.61
2016,10,14,02,30,985.57
2016,10,14,02,31,985.64
2016,10,14,02,32,985.68
2016,10,14,02,33,985.74
2016,10,14,02,34,985.74
2016,10,14,02,35,985.85
2016,10,14,02,36,985.91
2016,10,14,02,37,985.95
2016,10,14,02,38,985.96
2016,10,14,02,39,986.08
2016,10,14,02,40,986.22
2016,10,14,02,41,986.35
2016,10,14,02,42,986.32
2016,10,14,02,43,986.39
2016,10,14,02,44,986.52
2016,10,14,02,45,986.59
2016,10,14,02,46,986.62
2016,10,14,02,47,986.59
2016,10,14,02,48,986.62
2016,10,14,02,49,986.76
2016,10,14,02,50,986.80
2016,10,14,02,51,986.93
2016,10,14,02,52,987.00
2016,10,14,02,53,987.03
2016,10,14,02,54,987.09
2016,10,14,02,55,987.00
2016,10,14,02,56,987.03
2016,10,14,02,57,987.13
2016,10,14,02,58,987.23
2016,10,14,02,59,987.23
2016,10,14,03,00,987.20
2016,10,14,03,01,987.27
2016,10,14,03,02,987.27
2016,10,14,03,03,987.23
2016,10,14,03,04,987.30
2016,10,14,03,05,987.27
2016,10,14,03,06,987.27
2016,10,14,03,07,987.20
2016,10,14,03,08,987.12
2016,10,14,03,09,987.03
2016,10,14,03,10,986.92
2016,10,14,03,11,986.73
2016,10,14,03,12,986.52
2016,10,14,03,13,986.32
2016,10,14,03,14,986.22
2016,10,14,03,15,986.57
2016,10,14,03,16,986.69
2016,10,14,03,17,986.83
2016,10,14,03,18,986.93
2016,10,14,03,19,987.00
2016,10,14,03,20,987.03
2016,10,14,03,21,987.03
2016,10,14,03,22,987.00
2016,10,14,03,23,986.90
2016,10,14,03,24,986.86
2016,10,14,03,25,986.96
2016,10,14,03,26,987.03
2016,10,14,03,27,987.06
2016,10,14,03,28,987.03
2016,10,14,03,29,987.03
2016,10,14,03,30,987.03
2016,10,14,03,31,986.96
2016,10,14,03,32,986.86
2016,10,14,03,33,986.94
2016,10,14,03,34,987.11
2016,10,14,03,35,987.23
2016,10,14,03,36,987.34
2016,10,14,03,37,987.37
2016,10,14,03,38,987.30
2016,10,14,03,39,987.23
2016,10,14,03,40,987.17
2016,10,14,03,41,987.20
2016,10,14,03,42,987.20
2016,10,14,03,43,987.13
2016,10,14,03,44,987.13
2016,10,14,03,45,987.10
2016,10,14,03,46,987.13
2016,10,14,03,47,987.17
2016,10,14,03,48,987.17
2016,10,14,03,49,987.10
2016,10,14,03,50,987.05
2016,10,14,03,51,986.96
2016,10,14,03,52,986.96
2016,10,14,03,53,987.00
2016,10,14,03,54,986.96
2016,10,14,03,55,986.90
2016,10,14,03,56,986.93
2016,10,14,03,57,986.96
2016,10,14,03,58,987.03
2016,10,14,03,59,987.00
2016,10,14,04,00,987.06
2016,10,14,04,01,987.06
2016,10,14,04,02,987.10
2016,10,14,04,03,987.10
2016,10,14,04,04,987.13
2016,10,14,04,05,987.17
2016,10,14,04,06,987.27
2016,10,14,04,07,987.30
2016,10,14,04,08,987.30
2016,10,14,04,09,987.30
2016,10,14,04,10,987.34
2016,10,14,04,11,987.37
2016,10,14,04,12,987.34
2016,10,14,04,13,987.27
2016,10,14,04,14,987.22
2016,10,14,04,15,987.09
2016,10,14,04,16,986.96
2016,10,14,04,17,986.96
2016,10,14,04,18,986.90
2016,10,14,04,19,986.86
2016,10,14,04,20,986.90
2016,10,14,04,21,986.90
2016,10,14,04,22,986.96
2016,10,14,04,23,986.93
2016,10,14,04,24,986.79
2016,10,14,04,25,986.76
2016,10,14,04,26,986.79
2016,10,14,04,27,986.69
2016,10,14,04,28,986.76
2016,10,14,04,29,986.69
2016,10,14,04,30,986.62
2016,10,14,04,31,986.62
2016,10,14,04,32,986.69
2016,10,14,04,33,986.73
2016,10,14,04,34,986.73
2016,10,14,04,35,986.73
2016,10,14,04,36,986.76
2016,10,14,04,37,986.73
2016,10,14,04,38,986.79
2016,10,14,04,39,986.79
2016,10,14,04,40,986.83
2016,10,14,04,41,986.79
2016,10,14,04,42,986.79
2016,10,14,04,43,986.76
2016,10,14,04,44,986.73
2016,10,14,04,45,986.69
2016,10,14,04,46,986.69
2016,10,14,04,47,986.69
2016,10,14,04,48,986.69
2016,10,14,04,49,986.69
2016,10,14,04,50,986.69
2016,10,14,04,51,986.76
2016,10,14,04,52,986.83
2016,10,14,04,53,986.83
2016,10,14,04,54,986.86
2016,10,14,04,55,986.83
2016,10,14,04,56,986.86
2016,10,14,04,57,986.83
2016,10,14,04,58,986.96
2016,10,14,04,59,986.93
2016,10,14,05,00,986.93
2016,10,14,05,01,986.93
2016,10,14,05,02,986.93
2016,10,14,05,03,986.93
2016,10,14,05,04,986.93
2016,10,14,05,05,987.03
2016,10,14,05,06,987.00
2016,10,14,05,07,987.00
2016,10,14,05,08,987.06
2016,10,14,05,09,987.00
2016,10,14,05,10,987.03
2016,10,14,05,11,987.03
2016,10,14,05,12,987.03
2016,10,14,05,13,987.06
2016,10,14,05,14,987.06
2016,10,14,05,15,987.10
2016,10,14,05,16,987.10
2016,10,14,05,17,987.10
2016,10,14,05,18,987.13
2016,10,14,05,19,987.17
2016,10,14,05,20,987.23
2016,10,14,05,21,987.27
2016,10,14,05,22,987.23
2016,10,14,05,23,987.30
2016,10,14,05,24,987.37
2016,10,14,05,25,987.37
2016,10,14,05,26,987.44
2016,10,14,05,27,987.47
2016,10,14,05,28,987.47
2016,10,14,05,29,987.51
2016,10,14,05,30,987.45
2016,10,14,05,31,987.54
2016,10,14,05,32,987.51
2016,10,14,05,33,987.47
2016,10,14,05,34,987.51
2016,10,14,05,35,987.54
2016,10,14,05,36,987.57
2016,10,14,05,37,987.54
2016,10,14,05,38,987.54
2016,10,14,05,39,987.61
2016,10,14,05,40,987.64
2016,10,14,05,41,987.67
2016,10,14,05,42,987.81
2016,10,14,05,43,987.84
2016,10,14,05,44,987.82
2016,10,14,05,45,987.91
2016,10,14,05,46,987.88
2016,10,14,05,47,987.91
2016,10,14,05,48,987.84
2016,10,14,05,49,987.78
2016,10,14,05,50,987.70
2016,10,14,05,51,987.54
2016,10,14,05,52,987.51
2016,10,14,05,53,987.46
2016,10,14,05,54,987.34
2016,10,14,05,55,987.34
2016,10,14,05,56,987.30
2016,10,14,05,57,987.27
2016,10,14,05,58,987.30
2016,10,14,05,59,987.27
2016,10,14,06,00,987.27
2016,10,14,06,01,987.30
2016,10,14,06,02,987.34
2016,10,14,06,03,987.30
2016,10,14,06,04,987.27
2016,10,14,06,05,987.23
2016,10,14,06,06,987.27
2016,10,14,06,07,987.34
2016,10,14,06,08,987.40
2016,10,14,06,09,987.37
2016,10,14,06,10,987.44
2016,10,14,06,11,987.47
2016,10,14,06,12,987.51
2016,10,14,06,13,987.51
2016,10,14,06,14,987.54
2016,10,14,06,15,987.67
2016,10,14,06,16,987.71
2016,10,14,06,17,987.67
2016,10,14,06,18,987.67
2016,10,14,06,19,987.78
2016,10,14,06,20,987.78
2016,10,14,06,21,987.81
2016,10,14,06,22,987.91
2016,10,14,06,23,987.81
2016,10,14,06,24,987.88
2016,10,14,06,25,987.88
2016,10,14,06,26,987.91
2016,10,14,06,27,987.95
2016,10,14,06,28,987.95
2016,10,14,06,29,987.95
2016,10,14,06,30,988.01
2016,10,14,06,31,988.08
2016,10,14,06,32,987.95
2016,10,14,06,33,987.91
2016,10,14,06,34,987.88
2016,10,14,06,35,987.94
2016,10,14,06,36,987.71
2016,10,14,06,37,987.84
2016,10,14,06,38,987.78
2016,10,14,06,39,987.71
2016,10,14,06,40,987.67
2016,10,14,06,41,987.61
2016,10,14,06,42,987.67
2016,10,14,06,43,987.61
2016,10,14,06,44,987.61
2016,10,14,06,45,987.61
2016,10,14,06,46,987.57
2016,10,14,06,47,987.54
2016,10,14,06,48,987.47
2016,10,14,06,49,987.51
2016,10,14,06,50,987.54
2016,10,14,06,51,987.61
2016,10,14,06,52,987.54
2016,10,14,06,53,987.54
2016,10,14,06,54,987.57
2016,10,14,06,55,987.65
2016,10,14,06,56,987.74
2016,10,14,06,57,987.67
2016,10,14,06,58,987.57
2016,10,14,06,59,987.57
2016,10,14,07,00,987.47
2016,10,14,07,01,987.40
2016,10,14,07,02,987.44
2016,10,14,07,03,987.44
2016,10,14,07,04,987.47
2016,10,14,07,05,987.44
2016,10,14,07,06,987.34
2016,10,14,07,07,987.44
2016,10,14,07,08,987.44
2016,10,14,07,09,987.47
2016,10,14,07,10,987.51
2016,10,14,07,11,987.54
2016,10,14,07,12,987.51
2016,10,14,07,13,987.64
2016,10,14,07,14,987.67
2016,10,14,07,15,987.74
2016,10,14,07,16,987.84
2016,10,14,07,17,987.81
2016,10,14,07,18,987.74
2016,10,14,07,19,987.71
2016,10,14,07,20,987.71
2016,10,14,07,21,987.67
2016,10,14,07,22,987.78
2016,10,14,07,23,987.84
2016,10,14,07,24,987.88
2016,10,14,07,25,987.91
2016,10,14,07,26,988.01
2016,10,14,07,27,988.01
2016,10,14,07,28,988.01
2016,10,14,07,29,987.95
2016,10,14,07,30,987.88
2016,10,14,07,31,987.71
2016,10,14,07,32,987.61
2016,10,14,07,33,987.45
2016,10,14,07,34,987.23
2016,10,14,07,35,987.34
2016,10,14,07,36,987.44
2016,10,14,07,37,987.30
2016,10,14,07,38,987.27
2016,10,14,07,39,987.23
2016,10,14,07,40,987.27
2016,10,14,07,41,987.30
2016,10,14,07,42,987.34
2016,10,14,07,43,987.30
2016,10,14,07,44,987.27
2016,10,14,07,45,987.36
2016,10,14,07,46,987.30
2016,10,14,07,47,987.30
2016,10,14,07,48,987.34
2016,10,14,07,49,987.27
2016,10,14,07,50,987.34
2016,10,14,07,51,987.30
2016,10,14,07,52,987.40
2016,10,14,07,53,987.47
2016,10,14,07,54,987.44
2016,10,14,07,55,987.51
2016,10,14,07,56,987.47
2016,10,14,07,57,987.40
2016,10,14,07,58,987.37
2016,10,14,07,59,987.37
2016,10,14,08,00,987.37
2016,10,14,08,01,987.30
2016,10,14,08,02,987.20
2016,10,14,08,03,987.20
2016,10,14,08,04,987.10
2016,10,14,08,05,987.10
2016,10,14,08,06,986.86
2016,10,14,08,07,986.79
2016,10,14,08,08,986.79
2016,10,14,08,09,986.67
2016,10,14,08,10,986.66
2016,10,14,08,11,986.66
2016,10,14,08,12,986.66
2016,10,14,08,13,986.62
2016,10,14,08,14,986.62
2016,10,14,08,15,986.62
2016,10,14,08,16,986.59
2016,10,14,08,17,986.59
2016,10,14,08,18,986.56
2016,10,14,08,19,986.49
2016,10,14,08,20,986.61
2016,10,14,08,21,986.66
2016,10,14,08,22,986.49
2016,10,14,08,23,986.52
2016,10,14,08,24,986.42
2016,10,14,08,25,986.39
2016,10,14,08,26,986.39
2016,10,14,08,27,986.52
2016,10,14,08,28,986.52
2016,10,14,08,29,986.59
2016,10,14,08,30,986.52
2016,10,14,08,31,986.61
2016,10,14,08,32,986.66
2016,10,14,08,33,986.73
2016,10,14,08,34,986.73
2016,10,14,08,35,986.73
2016,10,14,08,36,986.66
2016,10,14,08,37,986.62
2016,10,14,08,38,986.59
2016,10,14,08,39,986.59
2016,10,14,08,40,986.62
2016,10,14,08,41,986.62
2016,10,14,08,42,986.52
2016,10,14,08,43,986.59
2016,10,14,08,44,986.66
2016,10,14,08,45,986.62
2016,10,14,08,46,986.59
2016,10,14,08,47,986.52
2016,10,14,08,48,986.61
2016,10,14,08,49,986.56
2016,10,14,08,50,986.62
2016,10,14,08,51,986.56
2016,10,14,08,52,986.56
2016,10,14,08,53,986.56
2016,10,14,08,54,986.62
2016,10,14,08,55,986.62
2016,10,14,08,56,986.73
2016,10,14,08,57,986.73
2016,10,14,08,58,986.76
2016,10,14,08,59,986.66
2016,10,14,09,00,986.76
2016,10,14,09,01,986.79
2016,10,14,09,02,986.73
2016,10,14,09,03,986.69
2016,10,14,09,04,986.79
2016,10,14,09,05,986.56
2016,10,14,09,06,986.46
2016,10,14,09,07,986.46
2016,10,14,09,08,986.59
2016,10,14,09,09,986.68
2016,10,14,09,10,986.62
2016,10,14,09,11,986.49
2016,10,14,09,12,986.49
2016,10,14,09,13,986.46
2016,10,14,09,14,986.42
2016,10,14,09,15,986.49
2016,10,14,09,16,986.49
2016,10,14,09,17,986.52
2016,10,14,09,18,986.56
2016,10,14,09,19,986.46
2016,10,14,09,20,986.42
2016,10,14,09,21,986.49
2016,10,14,09,22,986.59
2016,10,14,09,23,986.66
2016,10,14,09,24,986.83
2016,10,14,09,25,986.93
2016,10,14,09,26,986.96
2016,10,14,09,27,987.00
2016,10,14,09,28,987.10
2016,10,14,09,29,987.13
2016,10,14,09,30,987.23
2016,10,14,09,31,987.27
2016,10,14,09,32,987.34
2016,10,14,09,33,987.37
2016,10,14,09,34,987.34
2016,10,14,09,35,987.30
2016,10,14,09,36,987.23
2016,10,14,09,37,987.23
2016,10,14,09,38,987.30
2016,10,14,09,39,987.30
2016,10,14,09,40,987.30
2016,10,14,09,41,987.23
2016,10,14,09,42,987.13
2016,10,14,09,43,987.10
2016,10,14,09,44,987.06
2016,10,14,09,45,987.00
2016,10,14,09,46,987.00
2016,10,14,09,47,987.00
2016,10,14,09,48,986.93
2016,10,14,09,49,987.03
2016,10,14,09,50,987.00
2016,10,14,09,51,987.00
2016,10,14,09,52,986.93
2016,10,14,09,53,986.93
2016,10,14,09,54,986.90
2016,10,14,09,55,986.86
2016,10,14,09,56,986.79
2016,10,14,09,57,986.70
2016,10,14,09,58,986.56
2016,10,14,09,59,986.46
2016,10,14,10,00,986.46
2016,10,14,10,01,986.39
2016,10,14,10,02,986.42
2016,10,14,10,03,986.39
2016,10,14,10,04,986.32
2016,10,14,10,05,986.29
2016,10,14,10,06,986.22
2016,10,14,10,07,986.22
2016,10,14,10,08,986.15
2016,10,14,10,09,986.18
2016,10,14,10,10,986.18
2016,10,14,10,11,986.12
2016,10,14,10,12,986.18
2016,10,14,10,13,986.08
2016,10,14,10,14,986.18
2016,10,14,10,15,986.25
2016,10,14,10,16,986.15
2016,10,14,10,17,986.12
2016,10,14,10,18,986.12
2016,10,14,10,19,986.12
2016,10,14,10,20,986.15
2016,10,14,10,21,986.15
2016,10,14,10,22,986.12
2016,10,14,10,23,986.08
2016,10,14,10,24,986.05
2016,10,14,10,25,986.02
2016,10,14,10,26,985.98
2016,10,14,10,27,986.02
2016,10,14,10,28,985.98
2016,10,14,10,29,985.98
2016,10,14,10,30,986.02
2016,10,14,10,31,986.02
2016,10,14,10,32,986.05
2016,10,14,10,33,986.15
2016,10,14,10,34,986.12
2016,10,14,10,35,986.15
2016,10,14,10,36,986.15
2016,10,14,10,37,986.22
2016,10,14,10,38,986.15
2016,10,14,10,39,986.15
2016,10,14,10,40,986.12
2016,10,14,10,41,986.24
2016,10,14,10,42,986.16
2016,10,14,10,43,986.18
2016,10,14,10,44,986.15
2016,10,14,10,45,986.22
2016,10,14,10,46,986.25
2016,10,14,10,47,986.18
2016,10,14,10,48,986.12
2016,10,14,10,49,986.15
2016,10,14,10,50,986.15
2016,10,14,10,51,986.18
2016,10,14,10,52,986.18
2016,10,14,10,53,986.18
2016,10,14,10,54,986.18
2016,10,14,10,55,986.15
2016,10,14,10,56,986.18
2016,10,14,10,57,986.12
2016,10,14,10,58,986.08
2016,10,14,10,59,986.05
2016,10,14,11,00,986.12
2016,10,14,11,01,985.98
2016,10,14,11,02,986.05
2016,10,14,11,03,985.91
2016,10,14,11,04,985.91
2016,10,14,11,05,985.88
2016,10,14,11,06,985.81
2016,10,14,11,07,985.85
2016,10,14,11,08,985.85
2016,10,14,11,09,985.71
2016,10,14,11,10,985.78
2016,10,14,11,11,985.68
2016,10,14,11,12,985.81
2016,10,14,11,13,985.64
2016,10,14,11,14,985.61
2016,10,14,11,15,985.81
2016,10,14,11,16,985.69
2016,10,14,11,17,985.57
2016,10,14,11,18,985.54
2016,10,14,11,19,985.51
2016,10,14,11,20,985.47
2016,10,14,11,21,985.51
2016,10,14,11,22,985.47
2016,10,14,11,23,985.41
2016,10,14,11,24,985.37
2016,10,14,11,25,985.44
2016,10,14,11,26,985.34
2016,10,14,11,27,985.41
2016,10,14,11,28,985.30
2016,10,14,11,29,985.30
2016,10,14,11,30,985.41
2016,10,14,11,31,985.30
2016,10,14,11,32,985.34
2016,10,14,11,33,985.20
2016,10,14,11,34,985.30
2016,10,14,11,35,985.27
2016,10,14,11,36,985.24
2016,10,14,11,37,985.30
2016,10,14,11,38,985.30
2016,10,14,11,39,985.24
2016,10,14,11,40,985.34
2016,10,14,11,41,985.30
2016,10,14,11,42,985.30
2016,10,14,11,43,985.37
2016,10,14,11,44,985.24
2016,10,14,11,45,985.24
2016,10,14,11,46,985.20
2016,10,14,11,47,985.34
2016,10,14,11,48,985.27
2016,10,14,11,49,985.34
2016,10,14,11,50,985.34
2016,10,14,11,51,985.37
2016,10,14,11,52,985.41
2016,10,14,11,53,985.41
2016,10,14,11,54,985.41
2016,10,14,11,55,985.37
2016,10,14,11,56,985.37
2016,10,14,11,57,985.27
2016,10,14,11,58,985.30
2016,10,14,11,59,985.13
2016,10,14,12,00,985.13
2016,10,14,12,01,985.03
2016,10,14,12,02,984.93
2016,10,14,12,03,984.80
2016,10,14,12,04,984.73
2016,10,14,12,05,984.56
2016,10,14,12,06,984.49
2016,10,14,12,07,984.39
2016,10,14,12,08,984.39
2016,10,14,12,09,984.32
2016,10,14,12,10,984.36
2016,10,14,12,11,984.39
2016,10,14,12,12,984.39
2016,10,14,12,13,984.39
2016,10,14,12,14,984.42
2016,10,14,12,15,984.39
2016,10,14,12,16,984.42
2016,10,14,12,17,984.46
2016,10,14,12,18,984.36
2016,10,14,12,19,984.36
2016,10,14,12,20,984.42
2016,10,14,12,21,984.36
2016,10,14,12,22,984.36
2016,10,14,12,23,984.36
2016,10,14,12,24,984.39
2016,10,14,12,25,984.25
2016,10,14,12,26,984.19
2016,10,14,12,27,984.19
2016,10,14,12,28,984.15
2016,10,14,12,29,984.15
2016,10,14,12,30,984.08
2016,10,14,12,31,984.12
2016,10,14,12,32,984.12
2016,10,14,12,33,984.22
2016,10,14,12,34,984.12
2016,10,14,12,35,984.05
2016,10,14,12,36,984.02
2016,10,14,12,37,983.98
2016,10,14,12,38,984.02
2016,10,14,12,39,983.95
2016,10,14,12,40,983.85
2016,10,14,12,41,983.75
2016,10,14,12,42,983.81
2016,10,14,12,43,983.92
2016,10,14,12,44,984.04
2016,10,14,12,45,983.71
2016,10,14,12,46,983.71
2016,10,14,12,47,983.68
2016,10,14,12,48,983.71
2016,10,14,12,49,983.71
2016,10,14,12,50,983.64
2016,10,14,12,51,983.54
2016,10,14,12,52,983.61
2016,10,14,12,53,983.58
2016,10,14,12,54,983.51
2016,10,14,12,55,983.44
2016,10,14,12,56,983.44
2016,10,14,12,57,983.37
2016,10,14,12,58,983.37
2016,10,14,12,59,983.37
2016,10,14,13,00,983.27
2016,10,14,13,01,983.41
2016,10,14,13,02,983.44
2016,10,14,13,03,983.48
2016,10,14,13,04,983.44
2016,10,14,13,05,983.41
2016,10,14,13,06,983.41
2016,10,14,13,07,983.41
2016,10,14,13,08,983.27
2016,10,14,13,09,983.24
2016,10,14,13,10,983.41
2016,10,14,13,11,983.44
2016,10,14,13,12,983.31
2016,10,14,13,13,983.34
2016,10,14,13,14,983.31
2016,10,14,13,15,983.41
2016,10,14,13,16,983.20
2016,10,14,13,17,983.41
2016,10,14,13,18,983.44
2016,10,14,13,19,983.37
2016,10,14,13,20,983.20
2016,10,14,13,21,983.04
2016,10,14,13,22,983.41
2016,10,14,13,23,983.14
2016,10,14,13,24,983.17
2016,10,14,13,25,983.14
2016,10,14,13,26,983.14
2016,10,14,13,27,983.17
2016,10,14,13,28,983.14
2016,10,14,13,29,983.17
2016,10,14,13,30,983.17
2016,10,14,13,31,983.14
2016,10,14,13,32,983.17
2016,10,14,13,33,983.10
2016,10,14,13,34,983.20
2016,10,14,13,35,983.24
2016,10,14,13,36,983.24
2016,10,14,13,37,983.31
2016,10,14,13,38,983.37
2016,10,14,13,39,983.58
2016,10,14,13,40,983.44
2016,10,14,13,41,983.44
2016,10,14,13,42,983.48
2016,10,14,13,43,983.54
2016,10,14,13,44,983.64
2016,10,14,13,45,983.64
2016,10,14,13,46,983.58
2016,10,14,13,47,983.58
2016,10,14,13,48,983.61
2016,10,14,13,49,983.31
2016,10,14,13,50,983.14
2016,10,14,13,51,983.20
2016,10,14,13,52,983.14
2016,10,14,13,53,983.24
2016,10,14,13,54,983.07
2016,10,14,13,55,983.24
2016,10,14,13,56,983.31
2016,10,14,13,57,983.07
2016,10,14,13,58,982.94
2016,10,14,13,59,983.10
2016,10,14,14,00,982.97
2016,10,14,14,01,983.32
2016,10,14,14,02,983.10
2016,10,14,14,03,983.04
2016,10,14,14,04,982.90
2016,10,14,14,05,982.97
2016,10,14,14,06,982.90
2016,10,14,14,07,982.90
2016,10,14,14,08,982.90
2016,10,14,14,09,982.83
2016,10,14,14,10,982.73
2016,10,14,14,11,982.83
2016,10,14,14,12,982.73
2016,10,14,14,13,983.04
2016,10,14,14,14,982.90
2016,10,14,14,15,982.90
2016,10,14,14,16,982.93
2016,10,14,14,17,983.00
2016,10,14,14,18,983.00
2016,10,14,14,19,983.14
2016,10,14,14,20,983.04
2016,10,14,14,21,983.04
2016,10,14,14,22,983.14
2016,10,14,14,23,983.07
2016,10,14,14,24,983.17
2016,10,14,14,25,983.20
2016,10,14,14,26,983.24
2016,10,14,14,27,983.14
2016,10,14,14,28,983.24
2016,10,14,14,29,983.20
2016,10,14,14,30,983.17
2016,10,14,14,31,983.20
2016,10,14,14,32,983.17
2016,10,14,14,33,983.34
2016,10,14,14,34,983.11
2016,10,14,14,35,983.04
2016,10,14,14,36,983.00
2016,10,14,14,37,983.14
2016,10,14,14,38,983.14
2016,10,14,14,39,983.14
2016,10,14,14,40,983.27
2016,10,14,14,41,983.27
2016,10,14,14,42,983.24
2016,10,14,14,43,983.31
2016,10,14,14,44,983.24
2016,10,14,14,45,983.24
2016,10,14,14,46,983.34
2016,10,14,14,47,983.37
2016,10,14,14,48,983.27
2016,10,14,14,49,983.41
2016,10,14,14,50,983.51
2016,10,14,14,51,983.58
2016,10,14,14,52,983.61
2016,10,14,14,53,983.61
2016,10,14,14,54,983.51
2016,10,14,14,55,983.54
2016,10,14,14,56,983.51
2016,10,14,14,57,983.54
2016,10,14,14,58,983.48
2016,10,14,14,59,983.37
2016,10,14,15,00,983.44
2016,10,14,15,01,983.60
2016,10,14,15,02,983.64
2016,10,14,15,03,983.68
2016,10,14,15,04,983.68
2016,10,14,15,05,983.75
2016,10,14,15,06,983.78
2016,10,14,15,07,983.68
2016,10,14,15,08,983.61
2016,10,14,15,09,983.64
2016,10,14,15,10,983.68
2016,10,14,15,11,983.81
2016,10,14,15,12,983.85
2016,10,14,15,13,983.88
2016,10,14,15,14,984.01
2016,10,14,15,15,984.02
2016,10,14,15,16,983.98
2016,10,14,15,17,984.05
2016,10,14,15,18,984.08
2016,10,14,15,19,984.02
2016,10,14,15,20,984.05
2016,10,14,15,21,984.05
2016,10,14,15,22,984.05
2016,10,14,15,23,984.19
2016,10,14,15,24,984.32
2016,10,14,15,25,984.29
2016,10,14,15,26,984.32
2016,10,14,15,27,984.32
2016,10,14,15,28,984.32
2016,10,14,15,29,984.48
2016,10,14,15,30,984.46
2016,10,14,15,31,984.53
2016,10,14,15,32,984.53
2016,10,14,15,33,984.63
2016,10,14,15,34,984.63
2016,10,14,15,35,984.69
2016,10,14,15,36,984.79
2016,10,14,15,37,984.86
2016,10,14,15,38,984.93
2016,10,14,15,39,984.97
2016,10,14,15,40,985.03
2016,10,14,15,41,985.07
2016,10,14,15,42,985.07
2016,10,14,15,43,985.10
2016,10,14,15,44,985.03
2016,10,14,15,45,985.10
2016,10,14,15,46,985.10
2016,10,14,15,47,985.13
2016,10,14,15,48,985.17
2016,10,14,15,49,985.20
2016,10,14,15,50,985.27
2016,10,14,15,51,985.24
2016,10,14,15,52,985.34
2016,10,14,15,53,985.37
2016,10,14,15,54,985.41
2016,10,14,15,55,985.37
2016,10,14,15,56,985.44
2016,10,14,15,57,985.51
2016,10,14,15,58,985.57
2016,10,14,15,59,985.61
2016,10,14,16,00,985.74
2016,10,14,16,01,985.81
2016,10,14,16,02,985.81
2016,10,14,16,03,985.85
2016,10,14,16,04,985.88
2016,10,14,16,05,985.97
2016,10,14,16,06,985.98
2016,10,14,16,07,986.02
2016,10,14,16,08,986.12
2016,10,14,16,09,986.18
2016,10,14,16,10,986.35
2016,10,14,16,11,986.46
2016,10,14,16,12,986.50
2016,10,14,16,13,986.62
2016,10,14,16,14,986.79
2016,10,14,16,15,986.86
2016,10,14,16,16,986.93
2016,10,14,16,17,986.90
2016,10,14,16,18,986.90
2016,10,14,16,19,986.96
2016,10,14,16,20,987.00
2016,10,14,16,21,987.00
2016,10,14,16,22,987.10
2016,10,14,16,23,987.10
2016,10,14,16,24,987.13
2016,10,14,16,25,987.20
2016,10,14,16,26,987.34
2016,10,14,16,27,987.37
2016,10,14,16,28,987.44
2016,10,14,16,29,987.37
2016,10,14,16,30,987.47
2016,10,14,16,31,987.61
2016,10,14,16,32,987.73
2016,10,14,16,33,987.84
2016,10,14,16,34,987.88
2016,10,14,16,35,987.74
2016,10,14,16,36,987.71